Time,TemperatureC,DewpointC,PressurehPa,WindDirection,WindDirectionDegrees,WindSpeedKMH,WindSpeedGustKMH,Humidity,HourlyPrecipMM,Conditions,Clouds,dailyrainMM,SolarRadiationWatts/m^2,UVIndex,SoftwareType,DateUTC
2026-09-05 00:04:57,6.8,2.1,1004.7,WNW,296,0.1,1.9,72.4,0.0,,,0.0,0,0,n/a,2026-09-04T12:04:57Z
2026-09-05 00:09:59,6.7,2.3,1004.7,WNW,296,0.5,3.7,73.6,0.0,,,0.0,0,0,n/a,2026-09-04T12:09:59Z
2026-09-05 00:14:57,6.6,2.3,1004.7,WNW,296,0.9,3.7,74,0.0,,,0.0,0,0,n/a,2026-09-04T12:14:57Z
2026-09-05 00:19:55,6.5,2.2,1004.8,WNW,296,0.3,3.7,74.2,0.0,,,0.0,0,0,n/a,2026-09-04T12:19:55Z
2026-09-05 00:24:55,6.4,2.2,1004.9,WNW,296,0,1.9,74.6,0.0,,,0.0,0,0,n/a,2026-09-04T12:24:55Z
2026-09-05 00:29:57,6.3,2.2,1005.0,WNW,296,0.1,1.9,75,0.0,,,0.0,0,0,n/a,2026-09-04T12:29:57Z
2026-09-05 00:34:57,6.2,2.1,1005.0,WNW,296,0.2,1.9,75,0.0,,,0.0,0,0,n/a,2026-09-04T12:34:57Z
2026-09-05 00:39:59,6.3,2.3,1005.0,WNW,296,1,3.7,75.9,0.0,,,0.0,0,0,n/a,2026-09-04T12:39:59Z
2026-09-05 00:44:58,6.3,2.5,1005.2,WNW,296,1.5,4.8,76.6,0.0,,,0.0,0,0,n/a,2026-09-04T12:44:58Z
2026-09-05 00:49:59,6.4,2.7,1005.2,WNW,296,2.3,5.6,77,0.0,,,0.0,0,0,n/a,2026-09-04T12:49:59Z
2026-09-05 00:54:59,6.8,2.9,1005.2,WNW,288,3.7,9.7,75.8,0.0,,,0.0,0,0,n/a,2026-09-04T12:54:59Z
2026-09-05 00:59:54,7.2,2.9,1005.4,West,281,3.6,6.4,74.2,0.0,,,0.0,0,0,n/a,2026-09-04T12:59:54Z
2026-09-05 01:04:59,7.5,2.8,1005.5,West,281,2.1,6.4,72.3,0.0,,,0.0,0,0,n/a,2026-09-04T13:04:59Z
2026-09-05 01:09:59,7.6,2.6,1005.7,West,281,0,1.9,71,0.0,,,0.0,0,0,n/a,2026-09-04T13:09:59Z
2026-09-05 01:14:54,7.6,2.6,1005.7,West,281,0.7,3.2,71,0.0,,,0.0,0,0,n/a,2026-09-04T13:14:54Z
2026-09-05 01:19:54,7.5,2.9,1005.8,West,281,1.9,3.7,72.6,0.0,,,0.0,0,0,n/a,2026-09-04T13:19:54Z
2026-09-05 01:24:58,7.3,2.7,1005.9,West,270,2.3,5.6,72.2,0.0,,,0.0,0,0,n/a,2026-09-04T13:24:58Z
2026-09-05 01:29:57,7.1,2.5,1006.0,West,265,1.8,5.6,72.4,0.0,,,0.0,0,0,n/a,2026-09-04T13:29:57Z
2026-09-05 01:34:56,6.9,2.4,1006.2,West,265,1.5,3.7,73,0.0,,,0.0,0,0,n/a,2026-09-04T13:34:56Z
2026-09-05 01:39:58,6.6,2.2,1006.3,West,265,1.2,3.7,73.5,0.0,,,0.0,0,0,n/a,2026-09-04T13:39:58Z
2026-09-05 01:44:58,6.4,2.3,1006.4,West,265,0.1,1.9,74.9,0.0,,,0.0,0,0,n/a,2026-09-04T13:44:58Z
2026-09-05 01:49:59,6.3,2.2,1006.5,West,265,0.4,1.9,75,0.0,,,0.0,0,0,n/a,2026-09-04T13:49:59Z
2026-09-05 01:54:59,6.2,2.2,1006.5,West,265,1.1,3.7,75.6,0.0,,,0.0,0,0,n/a,2026-09-04T13:54:59Z
2026-09-05 01:59:58,6.1,2.2,1006.6,West,265,0,0,76,0.0,,,0.0,0,0,n/a,2026-09-04T13:59:58Z
2026-09-05 02:04:55,5.9,2.1,1006.8,West,265,0,0,76.6,0.0,,,0.0,0,0,n/a,2026-09-04T14:04:55Z
2026-09-05 02:09:59,5.8,2.1,1006.8,West,265,0,0,77,0.0,,,0.0,0,0,n/a,2026-09-04T14:09:59Z
2026-09-05 02:14:59,5.6,1.9,1006.8,West,265,0.3,1.9,77,0.0,,,0.0,0,0,n/a,2026-09-04T14:14:59Z
2026-09-05 02:19:58,5.5,1.8,1006.8,West,265,0.7,1.9,77.2,0.0,,,0.0,0,0,n/a,2026-09-04T14:19:58Z
2026-09-05 02:24:58,5.3,1.8,1006.8,West,265,0,1.9,78,0.0,,,0.0,0,0,n/a,2026-09-04T14:24:58Z
2026-09-05 02:29:55,5.1,1.6,1006.9,West,265,0,0,78,0.0,,,0.0,0,0,n/a,2026-09-04T14:29:55Z
2026-09-05 02:34:58,4.9,1.4,1007.0,West,265,1.2,3.7,78,0.0,,,0.0,0,0,n/a,2026-09-04T14:34:58Z
2026-09-05 02:39:57,4.8,1.4,1007.0,West,265,0.6,3.7,78.9,0.0,,,0.0,0,0,n/a,2026-09-04T14:39:57Z
2026-09-05 02:44:56,4.7,1.3,1007.0,West,265,0.1,1.9,79,0.0,,,0.0,0,0,n/a,2026-09-04T14:44:56Z
2026-09-05 02:49:54,4.6,1.4,1007.0,West,265,0,0,80,0.0,,,0.0,0,0,n/a,2026-09-04T14:49:54Z
2026-09-05 02:54:58,4.5,1.4,1007.0,West,265,0,0,80,0.0,,,0.0,0,0,n/a,2026-09-04T14:54:58Z
2026-09-05 02:59:56,4.4,1.3,1007.1,West,265,0,0,80,0.0,,,0.0,0,0,n/a,2026-09-04T14:59:56Z
2026-09-05 03:04:55,4.3,1.1,1007.1,West,265,0,0,80,0.0,,,0.0,0,0,n/a,2026-09-04T15:04:55Z
2026-09-05 03:09:55,4.2,1.1,1007.1,West,265,0,0,80,0.0,,,0.0,0,0,n/a,2026-09-04T15:09:55Z
2026-09-05 03:14:57,4.2,1,1007.1,West,265,0.7,5.6,80.2,0.0,,,0.0,0,0,n/a,2026-09-04T15:14:57Z
2026-09-05 03:19:59,4.1,1.1,1007.0,West,265,1.2,3.7,81,0.0,,,0.0,0,0,n/a,2026-09-04T15:19:59Z
2026-09-05 03:24:58,4.1,1.3,1007.0,West,265,0.1,1.9,82.2,0.0,,,0.0,0,0,n/a,2026-09-04T15:24:58Z
2026-09-05 03:29:58,4,1.3,1007.0,West,265,0.6,3.7,82.3,0.0,,,0.0,0,0,n/a,2026-09-04T15:29:58Z
2026-09-05 03:34:58,3.9,1.3,1007.0,West,265,0.4,1.9,83,0.0,,,0.0,0,0,n/a,2026-09-04T15:34:58Z
2026-09-05 03:39:57,3.9,1.2,1007.1,West,265,0.1,3.7,83,0.0,,,0.0,0,0,n/a,2026-09-04T15:39:57Z
2026-09-05 03:44:56,3.8,1.2,1007.1,West,265,0.3,1.9,83,0.0,,,0.0,0,0,n/a,2026-09-04T15:44:56Z
2026-09-05 03:49:56,3.7,1.2,1007.1,West,265,0.2,1.9,83.6,0.0,,,0.0,0,0,n/a,2026-09-04T15:49:56Z
2026-09-05 03:54:56,3.7,1.2,1007.2,West,265,0,1.9,84,0.0,,,0.0,0,0,n/a,2026-09-04T15:54:56Z
2026-09-05 03:59:56,3.6,1.2,1007.4,West,265,1.3,5.6,84,0.0,,,0.0,0,0,n/a,2026-09-04T15:59:56Z
2026-09-05 04:04:55,3.7,1.4,1007.6,South,184,3.5,6.4,84.6,0.0,,,0.0,0,0,n/a,2026-09-04T16:04:55Z
2026-09-05 04:09:54,3.8,1.5,1007.7,SE,143,1.6,5.6,85,0.0,,,0.0,0,0,n/a,2026-09-04T16:09:54Z
2026-09-05 04:14:59,3.8,1.6,1007.6,SE,143,0.9,3.7,85.3,0.0,,,0.0,0,0,n/a,2026-09-04T16:14:59Z
2026-09-05 04:19:55,3.9,1.8,1007.6,SE,143,0,1.9,86,0.0,,,0.0,0,0,n/a,2026-09-04T16:19:55Z
2026-09-05 04:24:54,4,1.9,1007.6,SE,143,0.3,1.9,86,0.0,,,0.0,0,0,n/a,2026-09-04T16:24:54Z
2026-09-05 04:29:54,4,1.7,1007.5,SE,145,0.1,1.9,85,0.0,,,0.0,0,0,n/a,2026-09-04T16:29:54Z
2026-09-05 04:34:58,3.9,1.7,1007.4,SE,145,0.6,3.7,85,0.0,,,0.0,0,0,n/a,2026-09-04T16:34:58Z
2026-09-05 04:39:54,3.9,1.8,1007.5,SE,146,0.3,1.9,86,0.0,,,0.0,0,0,n/a,2026-09-04T16:39:54Z
2026-09-05 04:44:59,3.9,1.8,1007.7,SE,146,2,3.7,86,0.0,,,0.0,0,0,n/a,2026-09-04T16:44:59Z
2026-09-05 04:49:59,4,1.9,1007.8,SE,146,0.5,3.7,86,0.0,,,0.0,0,0,n/a,2026-09-04T16:49:59Z
2026-09-05 04:54:58,4,1.9,1007.7,SE,146,0,1.9,86,0.0,,,0.0,0,0,n/a,2026-09-04T16:54:58Z
2026-09-05 04:59:58,3.9,1.8,1007.9,SE,146,0,0,86,0.0,,,0.0,0,0,n/a,2026-09-04T16:59:58Z
2026-09-05 05:04:59,3.8,1.7,1007.9,SE,146,0,0,86,0.0,,,0.0,0,0,n/a,2026-09-04T17:04:59Z
2026-09-05 05:09:57,3.8,1.7,1007.9,SE,146,0,0,86,0.0,,,0.0,0,0,n/a,2026-09-04T17:09:57Z
2026-09-05 05:14:56,3.7,1.6,1007.8,SE,146,0,0,86,0.0,,,0.0,0,0,n/a,2026-09-04T17:14:56Z
2026-09-05 05:19:56,3.7,1.6,1007.8,SE,146,0,1.9,86,0.0,,,0.0,0,0,n/a,2026-09-04T17:19:56Z
2026-09-05 05:24:57,3.7,1.6,1007.8,SE,146,0.2,1.9,86,0.0,,,0.0,0,0,n/a,2026-09-04T17:24:57Z
2026-09-05 05:29:56,3.6,1.5,1007.8,SE,146,0.5,3.7,86,0.0,,,0.0,0,0,n/a,2026-09-04T17:29:56Z
2026-09-05 05:34:57,3.5,1.4,1007.7,SE,146,0.1,1.9,86,0.0,,,0.0,0,0,n/a,2026-09-04T17:34:57Z
2026-09-05 05:39:54,3.4,1.3,1007.6,SE,146,0,0,86,0.0,,,0.0,0,0,n/a,2026-09-04T17:39:54Z
2026-09-05 05:44:54,3.3,1.3,1007.6,SE,146,0.5,1.9,86.5,0.0,,,0.0,0,0,n/a,2026-09-04T17:44:54Z
2026-09-05 05:49:54,3.3,1.4,1007.6,SE,146,1.6,3.7,87,0.0,,,0.0,0,0,n/a,2026-09-04T17:49:54Z
2026-09-05 05:54:55,3.3,1.4,1007.6,SE,146,1.8,3.7,87,0.0,,,0.0,0,0,n/a,2026-09-04T17:54:55Z
2026-09-05 05:59:54,3.4,1.4,1007.7,SE,146,2.2,3.7,87,0.0,,,0.0,0,0,n/a,2026-09-04T17:59:54Z
2026-09-05 06:04:55,3.5,1.6,1007.6,SE,146,2.1,3.7,87.2,0.0,,,0.0,0,0,n/a,2026-09-04T18:04:55Z
2026-09-05 06:09:57,3.6,1.8,1007.5,SE,146,1.5,3.7,87.6,0.0,,,0.0,0,0,n/a,2026-09-04T18:09:57Z
2026-09-05 06:14:57,3.7,1.9,1007.5,SE,146,0.1,3.7,87.6,0.0,,,0.0,0,0,n/a,2026-09-04T18:14:57Z
2026-09-05 06:19:57,3.7,1.8,1007.5,SE,146,0,0,87,0.0,,,0.0,0,0,n/a,2026-09-04T18:19:57Z
2026-09-05 06:24:57,3.6,1.7,1007.5,SE,146,0,0,87,0.0,,,0.0,0,0,n/a,2026-09-04T18:24:57Z
2026-09-05 06:29:56,3.6,1.6,1007.4,SE,146,0,0,87,0.0,,,0.0,0,0,n/a,2026-09-04T18:29:56Z
2026-09-05 06:34:56,3.5,1.5,1007.4,SE,146,0.1,1.9,87,0.0,,,0.0,0,0,n/a,2026-09-04T18:34:56Z
2026-09-05 06:39:59,3.4,1.5,1007.5,SE,146,0.5,1.9,87,0.0,,,0.0,0,0,n/a,2026-09-04T18:39:59Z
2026-09-05 06:44:58,3.4,1.4,1007.4,SE,146,0,1.9,87,0.0,,,0.0,11,0,n/a,2026-09-04T18:44:58Z
2026-09-05 06:49:58,3.4,1.5,1007.3,SE,146,0.9,3.7,87.4,0.0,,,0.0,14,0,n/a,2026-09-04T18:49:58Z
2026-09-05 06:54:59,3.5,1.7,1007.4,SE,146,0,1.9,88,0.0,,,0.0,21,0,n/a,2026-09-04T18:54:59Z
2026-09-05 06:59:59,3.5,1.7,1007.4,SE,146,0.2,1.9,88,0.0,,,0.0,26,0,n/a,2026-09-04T18:59:59Z
2026-09-05 07:04:59,3.5,1.7,1007.5,SE,146,0,0,88,0.0,,,0.0,28,0,n/a,2026-09-04T19:04:59Z
2026-09-05 07:09:55,3.6,1.9,1007.5,SE,146,0,0,88,0.0,,,0.0,32,0,n/a,2026-09-04T19:09:55Z
2026-09-05 07:14:54,3.8,2.1,1007.5,SSE,147,0.6,5.6,88.9,0.0,,,0.0,44,0,n/a,2026-09-04T19:14:54Z
2026-09-05 07:19:54,4,2.4,1007.5,SSE,147,0,3.7,89,0.0,,,0.0,49,0,n/a,2026-09-04T19:19:54Z
2026-09-05 07:24:59,4.3,2.6,1007.5,SSE,147,0,0,89,0.0,,,0.0,62,0,n/a,2026-09-04T19:24:59Z
2026-09-05 07:29:54,4.6,3.1,1007.5,SSE,147,0,1.9,89.7,0.0,,,0.0,62,0,n/a,2026-09-04T19:29:54Z
2026-09-05 07:34:58,4.9,3.4,1007.4,SSE,147,0,0,89.5,0.0,,,0.0,40,0,n/a,2026-09-04T19:34:58Z
2026-09-05 07:39:54,5.1,3.5,1007.3,SSE,147,0,0,89,0.0,,,0.0,46,0,n/a,2026-09-04T19:39:54Z
2026-09-05 07:44:59,5.2,3.6,1007.3,SSE,147,0,0,89,0.0,,,0.0,37,0,n/a,2026-09-04T19:44:59Z
2026-09-05 07:49:46,5.3,3.6,1007.4,SSE,147,0,0,89,0.0,,,0.0,37,0,n/a,2026-09-04T19:49:46Z